| time (UTC) | temp F | wind direction | speed knots | gust knots | rain 1hr in | rain 24hr in | rain mn in | humidity % | barometer mb |
| 20260510120751 | 47 | 113 | 1.7 | 7.8 | 0.00 | 0.00 | 0.00 | 88 | 1030.8 |
| 20260510120251 | 47 | 94 | 0.9 | 4.3 | 0.00 | 0.00 | 0.00 | 88 | 1030.9 |
| 20260510115751 | 47 | 105 | 0.9 | 3.5 | 0.00 | 0.00 | 0.00 | 88 | 1030.8 |
| 20260510115251 | 47 | 109 | 1.7 | 2.6 | 0.00 | 0.00 | 0.00 | 88 | 1030.9 |
| 20260510114751 | 47 | 71 | 1.7 | 4.3 | 0.00 | 0.00 | 0.00 | 88 | 1030.8 |
| 20260510114251 | 47 | 126 | 0.9 | 2.6 | 0.00 | 0.00 | 0.00 | 88 | 1030.9 |
| 20260510113751 | 47 | 134 | 1.7 | 5.2 | 0.00 | 0.00 | 0.00 | 88 | 1030.8 |
| 20260510113251 | 48 | 74 | 1.7 | 5.2 | 0.00 | 0.00 | 0.00 | 88 | 1030.9 |
| 20260510112751 | 48 | 164 | 1.7 | 3.5 | 0.00 | 0.00 | 0.00 | 87 | 1030.8 |
| 20260510112251 | 48 | 60 | 1.7 | 5.2 | 0.00 | 0.00 | 0.00 | 87 | 1030.8 |
| 20260510111751 | 48 | 166 | 1.7 | 4.3 | 0.00 | 0.00 | 0.00 | 87 | 1030.8 |
| 20260510111251 | 48 | 244 | 0.9 | 4.3 | 0.00 | 0.00 | 0.00 | 87 | 1030.7 |
| 20260510110751 | 48 | 105 | 0.9 | 5.2 | 0.00 | 0.00 | 0.00 | 87 | 1030.7 |
| 20260510110251 | 48 | 126 | 1.7 | 2.6 | 0.00 | 0.00 | 0.00 | 87 | 1030.8 |
| 20260510105751 | 48 | 202 | 1.7 | 7.8 | 0.00 | 0.00 | 0.00 | 87 | 1030.7 |
| 20260510105251 | 48 | 127 | 0.0 | 2.6 | 0.00 | 0.00 | 0.00 | 87 | 1030.7 |
| 20260510104751 | 48 | 128 | 0.9 | 1.7 | 0.00 | 0.00 | 0.00 | 86 | 1030.6 |
| 20260510104251 | 48 | 300 | 1.7 | 3.5 | 0.00 | 0.00 | 0.00 | 86 | 1030.5 |
| 20260510103751 | 48 | 90 | 1.7 | 5.2 | 0.00 | 0.00 | 0.00 | 86 | 1030.6 |
| 20260510103251 | 48 | 69 | 1.7 | 7.0 | 0.00 | 0.00 | 0.00 | 86 | 1030.6 |
| 20260510102751 | 48 | 84 | 1.7 | 7.0 | 0.00 | 0.00 | 0.00 | 86 | 1030.6 |
| 20260510102251 | 48 | 111 | 1.7 | 2.6 | 0.00 | 0.00 | 0.00 | 86 | 1030.6 |
| 20260510101751 | 48 | 138 | 1.7 | 7.0 | 0.00 | 0.00 | 0.00 | 86 | 1030.6 |
| 20260510101251 | 48 | 300 | 0.9 | 2.6 | 0.00 | 0.00 | 0.00 | 86 | 1030.5 |
| 20260510100751 | 48 | 263 | 1.7 | 7.0 | 0.00 | 0.00 | 0.00 | 86 | 1030.5 |
| 20260510100251 | 48 | 113 | 1.7 | 5.2 | 0.00 | 0.00 | 0.00 | 86 | 1030.6 |
| 20260510095751 | 48 | 34 | 0.9 | 2.6 | 0.00 | 0.00 | 0.00 | 86 | 1030.6 |
| 20260510095251 | 48 | 169 | 1.7 | 5.2 | 0.00 | 0.00 | 0.00 | 86 | 1030.5 |
| 20260510094751 | 48 | 230 | 1.7 | 5.2 | 0.00 | 0.00 | 0.00 | 86 | 1030.5 |
| 20260510094251 | 48 | 116 | 1.7 | 6.1 | 0.00 | 0.00 | 0.00 | 86 | 1030.4 |
| 20260510093751 | 48 | 153 | 0.9 | 3.5 | 0.00 | 0.00 | 0.00 | 85 | 1030.4 |
| 20260510093251 | 48 | 220 | 0.9 | 3.5 | 0.00 | 0.00 | 0.00 | 85 | 1030.3 |
| 20260510092751 | 49 | 109 | 1.7 | 4.3 | 0.00 | 0.00 | 0.00 | 85 | 1030.3 |
| 20260510092251 | 49 | 106 | 1.7 | 4.3 | 0.00 | 0.00 | 0.00 | 85 | 1030.1 |
| 20260510091751 | 49 | 259 | 1.7 | 5.2 | 0.00 | 0.00 | 0.00 | 85 | 1030.2 |
| 20260510091251 | 49 | 142 | 0.9 | 3.5 | 0.00 | 0.00 | 0.00 | 85 | 1030.1 |
| 20260510090751 | 49 | 90 | 0.9 | 3.5 | 0.00 | 0.00 | 0.00 | 85 | 1030.0 |
| 20260510090251 | 49 | 205 | 0.9 | 5.2 | 0.00 | 0.00 | 0.00 | 85 | 1029.9 |
| 20260510085751 | 49 | 99 | 1.7 | 4.3 | 0.00 | 0.00 | 0.00 | 85 | 1029.9 |
| 20260510085251 | 49 | 303 | 1.7 | 3.5 | 0.00 | 0.00 | 0.00 | 85 | 1029.8 |
| 20260510084751 | 49 | 238 | 1.7 | 3.5 | 0.00 | 0.00 | 0.00 | 85 | 1029.9 |
| 20260510084251 | 49 | 149 | 0.9 | 3.5 | 0.00 | 0.00 | 0.00 | 84 | 1029.9 |
| 20260510083751 | 50 | 327 | 0.9 | 4.3 | 0.00 | 0.00 | 0.00 | 84 | 1029.8 |
| 20260510083251 | 50 | 179 | 0.9 | 4.3 | 0.00 | 0.00 | 0.00 | 84 | 1029.7 |
| 20260510082751 | 50 | 85 | 0.9 | 3.5 | 0.00 | 0.00 | 0.00 | 84 | 1029.7 |
| 20260510082251 | 50 | 140 | 0.9 | 4.3 | 0.00 | 0.00 | 0.00 | 83 | 1029.6 |
| 20260510081751 | 50 | 147 | 0.9 | 4.3 | 0.00 | 0.00 | 0.00 | 83 | 1029.6 |
| 20260510081251 | 50 | 194 | 0.9 | 2.6 | 0.00 | 0.00 | 0.00 | 83 | 1029.6 |
| 20260510080751 | 51 | 223 | 0.9 | 1.7 | 0.00 | 0.00 | 0.00 | 82 | 1029.6 |
| 20260510080251 | 51 | 221 | 0.9 | 3.5 | 0.00 | 0.00 | 0.00 | 82 | 1029.4 |
| 20260510075751 | 51 | 103 | 0.9 | 1.7 | 0.00 | 0.00 | 0.00 | 81 | 1029.4 |
| 20260510075251 | 51 | 206 | 0.9 | 3.5 | 0.00 | 0.00 | 0.00 | 81 | 1029.5 |
| 20260510074751 | 52 | 157 | 0.9 | 1.7 | 0.00 | 0.00 | 0.00 | 80 | 1029.4 |
| 20260510074251 | 52 | 234 | 0.9 | 1.7 | 0.00 | 0.00 | 0.00 | 79 | 1029.4 |
| 20260510073751 | 53 | 107 | 0.9 | 2.6 | 0.00 | 0.00 | 0.00 | 79 | 1029.3 |
| 20260510073251 | 53 | 183 | 0.9 | 2.6 | 0.00 | 0.00 | 0.00 | 78 | 1029.3 |
| 20260510072751 | 53 | 143 | 0.9 | 3.5 | 0.00 | 0.00 | 0.00 | 77 | 1029.3 |
| 20260510072251 | 54 | 172 | 0.9 | 2.6 | 0.00 | 0.00 | 0.00 | 77 | 1029.3 |
| 20260510071751 | 54 | 126 | 0.0 | 1.7 | 0.00 | 0.00 | 0.00 | 76 | 1029.3 |
| 20260510071251 | 54 | 104 | 0.9 | 1.7 | 0.00 | 0.00 | 0.00 | 75 | 1029.3 |
| 20260510070751 | 55 | 178 | 0.9 | 3.5 | 0.00 | 0.00 | 0.00 | 75 | 1029.3 |
| 20260510070251 | 55 | 92 | 0.9 | 3.5 | 0.00 | 0.00 | 0.00 | 75 | 1029.3 |
| 20260510065751 | 55 | 150 | 0.9 | 3.5 | 0.00 | 0.00 | 0.00 | 75 | 1029.2 |
| 20260510065251 | 56 | 190 | 0.9 | 4.3 | 0.00 | 0.00 | 0.00 | 74 | 1029.1 |
| 20260510064751 | 56 | 265 | 0.9 | 2.6 | 0.00 | 0.00 | 0.00 | 73 | 1029.2 |
| 20260510064251 | 56 | 148 | 0.9 | 4.3 | 0.00 | 0.00 | 0.00 | 73 | 1029.1 |
| 20260510063751 | 56 | 146 | 0.9 | 4.3 | 0.00 | 0.00 | 0.00 | 74 | 1029.1 |
| 20260510063251 | 56 | 232 | 1.7 | 4.3 | 0.00 | 0.00 | 0.00 | 73 | 1029.0 |
| 20260510062751 | 57 | 207 | 1.7 | 5.2 | 0.00 | 0.00 | 0.00 | 73 | 1029.0 |
| 20260510062251 | 57 | 205 | 1.7 | 6.1 | 0.00 | 0.00 | 0.00 | 73 | 1029.0 |
| 20260510061751 | 57 | 229 | 0.9 | 1.7 | 0.00 | 0.00 | 0.00 | 73 | 1028.9 |
| 20260510061251 | 57 | 117 | 0.9 | 3.5 | 0.00 | 0.00 | 0.00 | 73 | 1028.9 |
| 20260510060751 | 57 | 206 | 1.7 | 3.5 | 0.00 | 0.00 | 0.00 | 73 | 1028.9 |
| 20260510060251 | 57 | 183 | 1.7 | 5.2 | 0.00 | 0.00 | 0.00 | 72 | 1028.8 |
| 20260510055751 | 57 | 238 | 0.9 | 6.1 | 0.00 | 0.00 | 0.00 | 72 | 1028.8 |
| 20260510055251 | 57 | 254 | 1.7 | 3.5 | 0.00 | 0.00 | 0.00 | 72 | 1028.8 |
| 20260510054751 | 57 | 66 | 2.6 | 3.5 | 0.00 | 0.00 | 0.00 | 71 | 1028.8 |
| 20260510054251 | 58 | 74 | 2.6 | 7.8 | 0.00 | 0.00 | 0.00 | 70 | 1028.7 |
| 20260510053751 | 58 | 40 | 1.7 | 5.2 | 0.00 | 0.00 | 0.00 | 70 | 1028.8 |
| 20260510053251 | 58 | 198 | 1.7 | 6.1 | 0.00 | 0.00 | 0.00 | 72 | 1028.8 |
| 20260510052751 | 57 | 117 | 1.7 | 7.0 | 0.00 | 0.00 | 0.00 | 71 | 1028.7 |
| 20260510052251 | 57 | 86 | 1.7 | 5.2 | 0.00 | 0.00 | 0.00 | 72 | 1028.7 |
| 20260510051751 | 57 | 182 | 2.6 | 7.0 | 0.00 | 0.00 | 0.00 | 73 | 1028.7 |
| 20260510051251 | 57 | 69 | 2.6 | 7.0 | 0.00 | 0.00 | 0.00 | 72 | 1028.6 |
| 20260510050751 | 57 | 128 | 1.7 | 4.3 | 0.00 | 0.00 | 0.00 | 72 | 1028.7 |
| 20260510050251 | 57 | 251 | 2.6 | 6.1 | 0.00 | 0.00 | 0.00 | 70 | 1028.6 |
| 20260510045751 | 57 | 61 | 2.6 | 7.8 | 0.00 | 0.00 | 0.00 | 70 | 1028.7 |
| 20260510045251 | 57 | 197 | 2.6 | 6.1 | 0.00 | 0.00 | 0.00 | 71 | 1028.7 |
| 20260510044751 | 57 | 257 | 1.7 | 6.1 | 0.00 | 0.00 | 0.00 | 72 | 1028.6 |
| 20260510044251 | 57 | 225 | 1.7 | 6.1 | 0.00 | 0.00 | 0.00 | 71 | 1028.7 |
| 20260510043751 | 58 | 212 | 2.6 | 8.7 | 0.00 | 0.00 | 0.00 | 70 | 1028.6 |
| 20260510043251 | 58 | 0 | 1.7 | 6.1 | 0.00 | 0.00 | 0.00 | 70 | 1028.6 |
| 20260510042752 | 58 | 134 | 1.7 | 8.7 | 0.00 | 0.00 | 0.00 | 69 | 1028.6 |
| 20260510042251 | 58 | 197 | 2.6 | 7.8 | 0.00 | 0.00 | 0.00 | 70 | 1028.5 |
| 20260510041752 | 59 | 19 | 2.6 | 4.3 | 0.00 | 0.00 | 0.00 | 69 | 1028.5 |
| 20260510041252 | 59 | 155 | 2.6 | 6.1 | 0.00 | 0.00 | 0.00 | 71 | 1028.5 |
| 20260510040752 | 59 | 115 | 2.6 | 7.0 | 0.00 | 0.00 | 0.00 | 70 | 1028.6 |
| 20260510040252 | 59 | 230 | 2.6 | 6.1 | 0.00 | 0.00 | 0.00 | 70 | 1028.6 |
| 20260510035752 | 59 | 132 | 1.7 | 8.7 | 0.00 | 0.00 | 0.00 | 70 | 1028.6 |
| 20260510035252 | 59 | 57 | 1.7 | 7.8 | 0.00 | 0.00 | 0.00 | 70 | 1028.7 |
| 20260510034752 | 59 | 219 | 1.7 | 6.1 | 0.00 | 0.00 | 0.00 | 72 | 1028.6 |
| 20260510034252 | 59 | 261 | 2.6 | 7.8 | 0.00 | 0.00 | 0.00 | 71 | 1028.6 |
| 20260510033752 | 59 | 192 | 2.6 | 7.8 | 0.00 | 0.00 | 0.00 | 71 | 1028.6 |
| 20260510033252 | 59 | 9 | 1.7 | 6.1 | 0.00 | 0.00 | 0.00 | 70 | 1028.6 |
| 20260510032752 | 59 | 94 | 1.7 | 4.3 | 0.00 | 0.00 | 0.00 | 71 | 1028.7 |
| 20260510032252 | 59 | 105 | 2.6 | 8.7 | 0.00 | 0.00 | 0.00 | 71 | 1028.7 |
| 20260510031752 | 59 | 149 | 1.7 | 5.2 | 0.00 | 0.00 | 0.00 | 72 | 1028.7 |
| 20260510031252 | 59 | 69 | 1.7 | 4.3 | 0.00 | 0.00 | 0.00 | 71 | 1028.6 |
| 20260510030752 | 59 | 98 | 2.6 | 3.5 | 0.00 | 0.00 | 0.00 | 72 | 1028.8 |
| 20260510030252 | 59 | 171 | 2.6 | 7.0 | 0.00 | 0.00 | 0.00 | 73 | 1028.8 |
| 20260510025752 | 58 | 192 | 1.7 | 5.2 | 0.00 | 0.00 | 0.00 | 73 | 1028.8 |
| 20260510025252 | 58 | 242 | 2.6 | 5.2 | 0.00 | 0.00 | 0.00 | 73 | 1028.9 |
| 20260510024752 | 58 | 321 | 2.6 | 7.0 | 0.00 | 0.00 | 0.00 | 73 | 1029.0 |
| 20260510023752 | 58 | 28 | 2.6 | 11.3 | 0.00 | 0.00 | 0.00 | 73 | 1029.1 |
| 20260510023252 | 58 | 182 | 2.6 | 7.8 | 0.00 | 0.00 | 0.00 | 72 | 1029.2 |
| 20260510022752 | 58 | 217 | 1.7 | 7.8 | 0.00 | 0.00 | 0.00 | 75 | 1029.2 |
| 20260510022252 | 58 | 103 | 2.6 | 7.8 | 0.00 | 0.00 | 0.00 | 73 | 1029.3 |
| 20260510021752 | 58 | 263 | 2.6 | 4.3 | 0.00 | 0.00 | 0.00 | 73 | 1029.4 |
| 20260510021252 | 58 | 184 | 1.7 | 4.3 | 0.00 | 0.00 | 0.00 | 74 | 1029.5 |
| 20260510020752 | 57 | 115 | 1.7 | 3.5 | 0.00 | 0.00 | 0.00 | 75 | 1029.6 |
| 20260510020252 | 57 | 355 | 1.7 | 6.1 | 0.00 | 0.00 | 0.00 | 75 | 1029.6 |
| 20260510015752 | 57 | 76 | 2.6 | 6.1 | 0.00 | 0.00 | 0.00 | 76 | 1029.5 |
| 20260510015252 | 56 | 56 | 3.5 | 7.0 | 0.00 | 0.00 | 0.00 | 77 | 1029.7 |
| 20260510014752 | 56 | 144 | 3.5 | 7.0 | 0.00 | 0.00 | 0.00 | 77 | 1029.6 |
| 20260510014252 | 56 | 5 | 3.5 | 7.8 | 0.00 | 0.00 | 0.00 | 77 | 1029.6 |
| 20260510013752 | 56 | 234 | 3.5 | 9.6 | 0.00 | 0.00 | 0.00 | 77 | 1029.8 |
| 20260510013252 | 56 | 159 | 3.5 | 7.8 | 0.00 | 0.00 | 0.00 | 78 | 1029.8 |
| 20260510012752 | 55 | 157 | 3.5 | 9.6 | 0.00 | 0.00 | 0.00 | 78 | 1029.9 |
| 20260510012252 | 55 | 215 | 3.5 | 9.6 | 0.00 | 0.00 | 0.00 | 78 | 1030.0 |
| 20260510011252 | 55 | 54 | 2.6 | 7.0 | 0.00 | 0.00 | 0.00 | 78 | 1030.0 |
| 20260510010752 | 54 | 128 | 2.6 | 6.1 | 0.00 | 0.00 | 0.00 | 79 | 1030.0 |
| 20260510010252 | 54 | 225 | 2.6 | 7.0 | 0.00 | 0.00 | 0.00 | 79 | 1030.0 |
| 20260510005752 | 54 | 254 | 3.5 | 7.8 | 0.00 | 0.00 | 0.00 | 81 | 1029.9 |
| 20260510005252 | 54 | 74 | 4.3 | 9.6 | 0.00 | 0.00 | 0.00 | 81 | 1029.9 |
| 20260510004752 | 53 | 194 | 3.5 | 11.3 | 0.00 | 0.00 | 0.00 | 81 | 1029.9 |
| 20260510004252 | 53 | 149 | 3.5 | 7.8 | 0.00 | 0.00 | 0.00 | 80 | 1030.0 |
| 20260510003752 | 53 | 115 | 3.5 | 8.7 | 0.00 | 0.00 | 0.00 | 82 | 1029.9 |
| 20260510003252 | 53 | 122 | 3.5 | 8.7 | 0.00 | 0.00 | 0.00 | 83 | 1029.9 |
| 20260510002752 | 52 | 88 | 3.5 | 9.6 | 0.00 | 0.00 | 0.00 | 83 | 1030.0 |
| 20260510002252 | 52 | 213 | 4.3 | 12.2 | 0.00 | 0.00 | 0.00 | 83 | 1029.8 |
| 20260510001752 | 52 | 185 | 4.3 | 8.7 | 0.00 | 0.00 | 0.00 | 84 | 1029.8 |
| 20260510001252 | 51 | 71 | 3.5 | 11.3 | 0.00 | 0.00 | 0.00 | 85 | 1029.9 |
| 20260510000752 | 51 | 105 | 3.5 | 10.4 | 0.00 | 0.00 | 0.00 | 87 | 1029.8 |
| 20260510000252 | 50 | 271 | 3.5 | 8.7 | 0.00 | 0.00 | 0.00 | 88 | 1029.8 |
| 20260509235752 | 50 | 107 | 3.5 | 10.4 | 0.00 | 0.00 | 0.00 | 88 | 1029.9 |
| 20260509235252 | 50 | 217 | 3.5 | 9.6 | 0.00 | 0.00 | 0.00 | 88 | 1029.9 |
| 20260509234752 | 50 | 213 | 3.5 | 11.3 | 0.00 | 0.00 | 0.00 | 88 | 1029.9 |
| 20260509234252 | 50 | 61 | 3.5 | 12.2 | 0.00 | 0.00 | 0.00 | 88 | 1029.8 |
| 20260509233752 | 50 | 264 | 2.6 | 10.4 | 0.00 | 0.00 | 0.00 | 89 | 1029.9 |
| 20260509233252 | 50 | 168 | 3.5 | 8.7 | 0.00 | 0.00 | 0.00 | 89 | 1029.9 |
| 20260509232752 | 49 | 255 | 3.5 | 10.4 | 0.00 | 0.00 | 0.00 | 89 | 1029.8 |
| 20260509232252 | 49 | 34 | 2.6 | 8.7 | 0.00 | 0.00 | 0.00 | 90 | 1030.0 |
| 20260509231752 | 49 | 148 | 2.6 | 7.0 | 0.00 | 0.00 | 0.00 | 90 | 1030.1 |
| 20260509231252 | 49 | 239 | 3.5 | 8.7 | 0.00 | 0.00 | 0.00 | 90 | 1030.0 |
| 20260509230752 | 49 | 24 | 2.6 | 9.6 | 0.00 | 0.00 | 0.00 | 91 | 1030.1 |
| 20260509230252 | 49 | 170 | 2.6 | 6.1 | 0.00 | 0.00 | 0.00 | 91 | 1030.1 |
| 20260509225752 | 49 | 81 | 2.6 | 7.0 | 0.00 | 0.00 | 0.00 | 91 | 1029.9 |
| 20260509225252 | 49 | 156 | 1.7 | 7.8 | 0.00 | 0.00 | 0.00 | 92 | 1030.0 |
| 20260509224752 | 49 | 130 | 1.7 | 4.3 | 0.00 | 0.00 | 0.00 | 92 | 1030.0 |
| 20260509224252 | 49 | 194 | 1.7 | 5.2 | 0.00 | 0.00 | 0.00 | 92 | 1029.9 |
| 20260509223752 | 49 | 244 | 2.6 | 7.0 | 0.00 | 0.00 | 0.00 | 92 | 1029.7 |
| 20260509223252 | 49 | 217 | 1.7 | 5.2 | 0.00 | 0.00 | 0.00 | 92 | 1029.7 |
| 20260509222752 | 49 | 276 | 1.7 | 6.1 | 0.00 | 0.00 | 0.00 | 93 | 1029.6 |
| 20260509222252 | 49 | 281 | 1.7 | 4.3 | 0.00 | 0.00 | 0.00 | 93 | 1029.6 |
| 20260509221753 | 49 | 244 | 1.7 | 4.3 | 0.00 | 0.00 | 0.00 | 93 | 1029.5 |
| 20260509221252 | 49 | 349 | 1.7 | 3.5 | 0.00 | 0.00 | 0.00 | 93 | 1029.5 |
| 20260509220752 | 49 | 110 | 1.7 | 5.2 | 0.00 | 0.00 | 0.00 | 93 | 1029.4 |
| 20260509220252 | 49 | 84 | 1.7 | 7.0 | 0.00 | 0.00 | 0.00 | 93 | 1029.5 |
| 20260509215752 | 49 | 167 | 0.9 | 7.8 | 0.00 | 0.00 | 0.00 | 93 | 1029.3 |
| 20260509215252 | 49 | 167 | 0.9 | 3.5 | 0.00 | 0.00 | 0.00 | 93 | 1029.4 |
| 20260509214752 | 48 | 150 | 1.7 | 5.2 | 0.00 | 0.00 | 0.00 | 93 | 1029.3 |
| 20260509214252 | 48 | 145 | 1.7 | 4.3 | 0.00 | 0.00 | 0.00 | 93 | 1029.3 |
| 20260509213752 | 48 | 115 | 1.7 | 3.5 | 0.00 | 0.00 | 0.00 | 93 | 1029.2 |
| 20260509213252 | 48 | 163 | 0.9 | 4.3 | 0.00 | 0.00 | 0.00 | 93 | 1029.2 |
| 20260509212752 | 48 | 189 | 0.9 | 4.3 | 0.00 | 0.00 | 0.00 | 93 | 1029.1 |
| 20260509212252 | 48 | 0 | 1.7 | 3.5 | 0.00 | 0.00 | 0.00 | 92 | 1029.0 |
| 20260509211752 | 48 | 246 | 1.7 | 4.3 | 0.00 | 0.00 | 0.00 | 92 | 1029.0 |
| 20260509211252 | 49 | 148 | 1.7 | 6.1 | 0.00 | 0.00 | 0.00 | 92 | 1028.9 |
| 20260509210752 | 49 | 250 | 1.7 | 4.3 | 0.00 | 0.00 | 0.00 | 93 | 1028.9 |
| 20260509210252 | 49 | 94 | 1.7 | 4.3 | 0.00 | 0.00 | 0.00 | 93 | 1028.9 |
| 20260509205752 | 49 | 150 | 1.7 | 4.3 | 0.00 | 0.00 | 0.00 | 93 | 1028.8 |
| 20260509205252 | 49 | 178 | 1.7 | 5.2 | 0.00 | 0.00 | 0.00 | 92 | 1028.6 |
| 20260509204752 | 49 | 92 | 1.7 | 2.6 | 0.00 | 0.00 | 0.00 | 92 | 1028.7 |
| 20260509204252 | 49 | 180 | 1.7 | 6.1 | 0.00 | 0.00 | 0.00 | 92 | 1028.6 |
| 20260509203752 | 49 | 182 | 1.7 | 7.0 | 0.00 | 0.00 | 0.00 | 92 | 1028.5 |
| 20260509203252 | 49 | 122 | 1.7 | 7.8 | 0.00 | 0.00 | 0.00 | 92 | 1028.6 |
| 20260509202753 | 49 | 186 | 1.7 | 4.3 | 0.00 | 0.00 | 0.00 | 92 | 1028.6 |
| 20260509202252 | 49 | 123 | 1.7 | 3.5 | 0.00 | 0.00 | 0.00 | 92 | 1028.5 |
| 20260509201752 | 49 | 235 | 1.7 | 7.0 | 0.00 | 0.00 | 0.00 | 92 | 1028.4 |
| 20260509201252 | 49 | 142 | 1.7 | 3.5 | 0.00 | 0.00 | 0.00 | 92 | 1028.4 |
| 20260509200752 | 49 | 224 | 2.6 | 4.3 | 0.00 | 0.00 | 0.00 | 91 | 1028.4 |
| 20260509200252 | 49 | 161 | 1.7 | 7.0 | 0.00 | 0.00 | 0.00 | 91 | 1028.3 |
| 20260509195752 | 49 | 187 | 1.7 | 4.3 | 0.00 | 0.00 | 0.00 | 91 | 1028.4 |
| 20260509195252 | 49 | 137 | 1.7 | 4.3 | 0.00 | 0.00 | 0.00 | 91 | 1028.4 |
| 20260509194752 | 49 | 238 | 1.7 | 5.2 | 0.00 | 0.00 | 0.00 | 91 | 1028.4 |
| 20260509194252 | 49 | 171 | 1.7 | 5.2 | 0.00 | 0.00 | 0.00 | 90 | 1028.4 |
| 20260509193752 | 49 | 157 | 1.7 | 5.2 | 0.00 | 0.00 | 0.00 | 90 | 1028.3 |
| 20260509193252 | 49 | 152 | 0.9 | 3.5 | 0.00 | 0.00 | 0.00 | 90 | 1028.3 |
| 20260509192752 | 49 | 226 | 0.9 | 2.6 | 0.00 | 0.00 | 0.00 | 90 | 1028.3 |
| 20260509192252 | 49 | 187 | 0.9 | 4.3 | 0.00 | 0.00 | 0.00 | 90 | 1028.3 |
| 20260509191752 | 49 | 107 | 1.7 | 5.2 | 0.00 | 0.00 | 0.00 | 90 | 1028.1 |
| 20260509191252 | 49 | 117 | 2.6 | 7.8 | 0.00 | 0.00 | 0.00 | 90 | 1028.0 |
| 20260509190753 | 49 | 223 | 2.6 | 5.2 | 0.00 | 0.00 | 0.00 | 90 | 1028.0 |
| 20260509190252 | 49 | 144 | 2.6 | 6.1 | 0.00 | 0.00 | 0.00 | 90 | 1027.8 |
| 20260509185752 | 50 | 159 | 1.7 | 6.1 | 0.00 | 0.00 | 0.00 | 91 | 1027.8 |
| 20260509185252 | 50 | 194 | 0.9 | 3.5 | 0.00 | 0.00 | 0.00 | 91 | 1027.7 |
| 20260509184752 | 50 | 148 | 0.9 | 3.5 | 0.00 | 0.00 | 0.00 | 92 | 1027.7 |
| 20260509184252 | 50 | 148 | 0.9 | 4.3 | 0.00 | 0.00 | 0.00 | 92 | 1027.7 |
| 20260509183752 | 50 | 190 | 0.9 | 5.2 | 0.00 | 0.00 | 0.00 | 92 | 1027.7 |
| 20260509183252 | 50 | 168 | 1.7 | 6.1 | 0.00 | 0.00 | 0.00 | 92 | 1027.7 |
| 20260509182753 | 50 | 211 | 1.7 | 4.3 | 0.00 | 0.00 | 0.00 | 92 | 1027.6 |
| 20260509182253 | 50 | 173 | 0.9 | 6.1 | 0.00 | 0.01 | 0.00 | 92 | 1027.7 |
| 20260509181753 | 50 | 182 | 0.9 | 2.6 | 0.00 | 0.01 | 0.00 | 92 | 1027.6 |
| 20260509181253 | 50 | 188 | 1.7 | 3.5 | 0.00 | 0.01 | 0.00 | 92 | 1027.5 |
| 20260509180753 | 50 | 150 | 1.7 | 3.5 | 0.00 | 0.01 | 0.00 | 92 | 1027.5 |
| 20260509180253 | 50 | 58 | 1.7 | 6.1 | 0.00 | 0.01 | 0.00 | 92 | 1027.5 |
| 20260509175753 | 50 | 161 | 0.9 | 2.6 | 0.00 | 0.01 | 0.00 | 92 | 1027.5 |
| 20260509175253 | 50 | 205 | 0.9 | 2.6 | 0.00 | 0.01 | 0.00 | 93 | 1027.6 |
| 20260509174753 | 50 | 214 | 0.9 | 1.7 | 0.00 | 0.01 | 0.00 | 93 | 1027.5 |
| 20260509174253 | 50 | 136 | 0.9 | 3.5 | 0.00 | 0.01 | 0.00 | 93 | 1027.5 |
| 20260509173753 | 50 | 206 | 0.9 | 5.2 | 0.00 | 0.01 | 0.00 | 93 | 1027.5 |
| 20260509173253 | 50 | 195 | 1.7 | 4.3 | 0.00 | 0.01 | 0.00 | 93 | 1027.4 |
| 20260509172753 | 50 | 62 | 1.7 | 6.1 | 0.00 | 0.01 | 0.00 | 93 | 1027.4 |
| 20260509172253 | 50 | 213 | 0.9 | 3.5 | 0.00 | 0.01 | 0.00 | 93 | 1027.5 |
| 20260509171753 | 50 | 198 | 0.9 | 6.1 | 0.00 | 0.01 | 0.00 | 93 | 1027.4 |
| 20260509171253 | 50 | 148 | 0.9 | 4.3 | 0.00 | 0.01 | 0.00 | 93 | 1027.5 |
| 20260509170753 | 50 | 164 | 1.7 | 4.3 | 0.00 | 0.01 | 0.00 | 94 | 1027.5 |
| 20260509170253 | 50 | 210 | 0.9 | 3.5 | 0.00 | 0.01 | 0.00 | 94 | 1027.6 |
| 20260509165753 | 50 | 269 | 1.7 | 3.5 | 0.00 | 0.01 | 0.00 | 94 | 1027.6 |
| 20260509165253 | 50 | 223 | 1.7 | 6.1 | 0.00 | 0.01 | 0.00 | 94 | 1027.6 |
| 20260509164753 | 50 | 235 | 0.9 | 2.6 | 0.00 | 0.01 | 0.00 | 94 | 1027.7 |
| 20260509164253 | 50 | 177 | 0.9 | 2.6 | 0.00 | 0.01 | 0.00 | 94 | 1027.6 |
| 20260509163753 | 50 | 237 | 0.0 | 1.7 | 0.00 | 0.01 | 0.00 | 94 | 1027.7 |
| 20260509163253 | 50 | 134 | 0.0 | 1.7 | 0.00 | 0.01 | 0.00 | 94 | 1027.7 |
| 20260509162753 | 50 | 183 | 0.0 | 1.7 | 0.00 | 0.01 | 0.00 | 94 | 1027.7 |
| 20260509162253 | 50 | 257 | 0.9 | 2.6 | 0.00 | 0.01 | 0.00 | 94 | 1027.7 |
| 20260509161753 | 50 | 119 | 0.9 | 3.5 | 0.00 | 0.01 | 0.00 | 94 | 1027.7 |
| 20260509161253 | 50 | 237 | 0.0 | 0.0 | 0.00 | 0.01 | 0.00 | 94 | 1027.8 |
| 20260509160753 | 50 | 184 | 0.0 | 0.9 | 0.00 | 0.01 | 0.00 | 94 | 1027.7 |
| 20260509160253 | 50 | 191 | 0.9 | 1.7 | 0.00 | 0.01 | 0.00 | 94 | 1027.8 |
| 20260509155753 | 50 | 160 | 0.9 | 2.6 | 0.00 | 0.01 | 0.00 | 94 | 1027.8 |
| 20260509155253 | 50 | 15 | 0.9 | 4.3 | 0.00 | 0.01 | 0.00 | 94 | 1027.7 |
| 20260509154753 | 50 | 240 | 0.9 | 2.6 | 0.00 | 0.01 | 0.00 | 94 | 1027.8 |
| 20260509154253 | 50 | 105 | 0.9 | 3.5 | 0.00 | 0.01 | 0.00 | 94 | 1027.6 |
| 20260509153753 | 50 | 143 | 1.7 | 3.5 | 0.00 | 0.01 | 0.00 | 94 | 1027.8 |
| 20260509153253 | 50 | 117 | 1.7 | 4.3 | 0.00 | 0.01 | 0.00 | 94 | 1027.8 |
| 20260509152753 | 50 | 138 | 1.7 | 5.2 | 0.00 | 0.01 | 0.00 | 94 | 1027.8 |
| 20260509152253 | 50 | 199 | 1.7 | 6.1 | 0.00 | 0.01 | 0.00 | 93 | 1027.7 |
| 20260509151753 | 50 | 168 | 1.7 | 5.2 | 0.00 | 0.01 | 0.00 | 93 | 1027.8 |
| 20260509151253 | 50 | 200 | 1.7 | 4.3 | 0.00 | 0.01 | 0.00 | 93 | 1027.7 |
| 20260509150753 | 50 | 192 | 1.7 | 3.5 | 0.00 | 0.01 | 0.00 | 94 | 1027.7 |
| 20260509150253 | 50 | 92 | 2.6 | 3.5 | 0.00 | 0.01 | 0.00 | 93 | 1027.8 |
| 20260509145753 | 50 | 178 | 2.6 | 7.8 | 0.00 | 0.01 | 0.00 | 93 | 1027.7 |
| 20260509145253 | 50 | 194 | 2.6 | 7.8 | 0.00 | 0.01 | 0.00 | 93 | 1027.6 |
| 20260509144753 | 50 | 131 | 1.7 | 9.6 | 0.00 | 0.01 | 0.00 | 93 | 1027.7 |
| 20260509144253 | 50 | 161 | 0.9 | 6.1 | 0.00 | 0.01 | 0.00 | 93 | 1027.7 |
| 20260509143753 | 50 | 158 | 0.9 | 4.3 | 0.00 | 0.01 | 0.00 | 93 | 1027.8 |
| 20260509143253 | 50 | 174 | 1.7 | 4.3 | 0.00 | 0.01 | 0.00 | 93 | 1027.8 |
| 20260509142753 | 50 | 130 | 1.7 | 4.3 | 0.00 | 0.01 | 0.00 | 93 | 1027.8 |
| 20260509142253 | 50 | 215 | 1.7 | 7.0 | 0.00 | 0.02 | 0.00 | 93 | 1027.8 |
| 20260509141753 | 50 | 126 | 1.7 | 6.1 | 0.00 | 0.02 | 0.00 | 93 | 1027.8 |
| 20260509141253 | 50 | 150 | 1.7 | 7.0 | 0.00 | 0.02 | 0.00 | 93 | 1027.8 |
| 20260509140753 | 50 | 206 | 2.6 | 6.1 | 0.00 | 0.02 | 0.00 | 92 | 1027.9 |
| 20260509140253 | 50 | 189 | 1.7 | 4.3 | 0.00 | 0.02 | 0.00 | 93 | 1028.0 |
| 20260509135753 | 50 | 209 | 1.7 | 6.1 | 0.00 | 0.02 | 0.02 | 92 | 1027.9 |
| 20260509135253 | 50 | 135 | 1.7 | 4.3 | 0.00 | 0.02 | 0.02 | 92 | 1027.8 |
| 20260509134753 | 50 | 157 | 1.7 | 4.3 | 0.00 | 0.02 | 0.02 | 92 | 1028.0 |
| 20260509134253 | 50 | 153 | 1.7 | 4.3 | 0.00 | 0.02 | 0.02 | 92 | 1027.9 |
| 20260509133753 | 50 | 161 | 2.6 | 7.0 | 0.00 | 0.02 | 0.02 | 92 | 1027.7 |
| 20260509133253 | 50 | 160 | 1.7 | 6.1 | 0.00 | 0.02 | 0.02 | 92 | 1027.8 |
| 20260509132753 | 50 | 208 | 1.7 | 6.1 | 0.00 | 0.02 | 0.02 | 91 | 1028.0 |
| 20260509132253 | 51 | 213 | 1.7 | 7.0 | 0.00 | 0.02 | 0.02 | 91 | 1028.0 |
| 20260509131753 | 51 | 103 | 1.7 | 4.3 | 0.00 | 0.02 | 0.02 | 91 | 1028.0 |
| 20260509131253 | 51 | 199 | 2.6 | 6.1 | 0.00 | 0.02 | 0.02 | 91 | 1027.9 |
| 20260509130753 | 51 | 201 | 1.7 | 8.7 | 0.00 | 0.02 | 0.02 | 91 | 1027.8 |
| 20260509130253 | 51 | 197 | 1.7 | 5.2 | 0.00 | 0.02 | 0.02 | 92 | 1027.8 |
| 20260509125753 | 51 | 175 | 0.9 | 5.2 | 0.00 | 0.02 | 0.02 | 91 | 1028.0 |
| 20260509125253 | 51 | 204 | 0.9 | 7.0 | 0.00 | 0.02 | 0.02 | 91 | 1028.0 |
| 20260509124753 | 51 | 113 | 1.7 | 1.7 | 0.00 | 0.02 | 0.02 | 92 | 1028.1 |
| 20260509123753 | 51 | 265 | 0.9 | 4.3 | 0.00 | 0.02 | 0.02 | 92 | 1028.1 |
| 20260509123253 | 51 | 180 | 0.9 | 3.5 | 0.00 | 0.02 | 0.02 | 91 | 1028.1 |
| 20260509122753 | 51 | 180 | 0.9 | 2.6 | 0.00 | 0.02 | 0.02 | 91 | 1028.0 |
| 20260509122253 | 51 | 227 | 0.9 | 1.7 | 0.00 | 0.02 | 0.02 | 92 | 1028.1 |
| 20260509121753 | 51 | 175 | 0.9 | 3.5 | 0.00 | 0.02 | 0.02 | 92 | 1028.1 |
| 20260509121253 | 51 | 188 | 1.7 | 6.1 | 0.00 | 0.02 | 0.02 | 92 | 1028.1 |